Theta_e
343 340 341 342 342 345 344 342 341 336 334 334 335 333 334 333 333 333 332 332 331 331 331 330 329 328 327 321 320 329 331 331 332 328 334 342 343 343 344 344 344 344 342 340 336 334 336 339 341 340 340 340 339 339 338 339 340 339 339 338 338 338 337 337 336 335 335 335 336 336 335 334 332 331 332 332 330 330 331 330 331 331 332 331 331
343 341 342 343 342 343 343 342 341 339 337 337 337 336 335 334 334 334 334 334 333 332 331 331 330 328 328 324 320 326 329 331 334 330 334 342 343 344 344 344 342 340 336 334 332 332 335 337 339 339 340 340 340 339 338 339 339 339 339 337 336 337 336 336 335 335 336 336 335 334 334 334 332 330 331 332 330 330 330 330 330 331 331 331 331
343 342 342 344 344 341 342 341 341 340 339 339 338 338 337 336 336 335 336 335 334 333 332 331 330 329 328 326 320 323 329 333 335 331 334 341 343 344 344 343 338 334 333 330 329 331 334 336 337 339 339 339 339 338 337 338 339 339 337 335 335 334 334 334 335 336 336 335 333 334 334 334 334 331 331 332 331 331 331 330 330 331 331 331 330
343 343 342 344 344 342 342 340 341 341 340 340 339 339 338 337 337 337 337 336 336 333 333 331 331 329 328 328 320 321 332 335 336 332 332 340 343 344 343 341 336 334 334 331 331 332 335 338 339 340 339 339 338 338 337 337 337 337 335 335 335 333 334 335 336 337 335 333 333 334 334 333 333 332 332 332 331 330 331 331 331 331 331 330 330
344 344 343 345 344 344 343 341 343 341 341 341 340 340 339 338 338 338 338 337 336 333 333 332 331 331 329 329 320 321 334 336 337 333 332 340 343 343 343 340 339 338 338 337 338 336 337 340 340 339 339 338 338 338 337 336 336 336 335 335 335 334 335 336 336 335 333 332 333 333 333 332 332 332 331 331 332 331 331 332 331 331 331 331 331
345 345 343 345 345 344 343 343 343 343 341 340 340 340 339 338 338 339 339 337 336 335 333 332 332 332 330 329 320 320 335 338 337 335 331 339 342 343 343 341 341 342 341 341 341 339 340 341 339 339 338 338 338 337 336 336 336 335 336 335 334 335 335 334 333 332 332 332 332 332 332 331 331 331 331 332 333 331 331 331 331 332 331 331 330
346 346 344 344 346 344 344 344 344 344 342 340 339 339 338 337 338 339 338 335 336 337 336 334 332 334 333 330 322 319 332 338 338 336 332 335 339 342 343 343 342 342 343 342 342 340 340 340 340 339 337 337 337 335 335 336 336 335 336 334 333 332 331 330 330 330 330 331 331 331 331 332 331 331 331 332 332 331 331 332 332 332 331 331 330
346 346 344 344 346 345 344 344 344 343 341 341 339 336 337 337 337 336 332 329 330 334 337 336 334 336 335 331 324 319 327 335 338 338 335 334 336 340 342 343 342 342 343 343 342 341 341 340 340 338 337 338 336 334 334 335 335 336 335 333 332 330 330 330 330 330 329 329 329 330 330 331 331 331 332 332 331 332 332 332 333 332 332 331 330
346 346 345 345 346 345 345 344 343 342 342 343 339 336 337 337 337 332 325 321 321 326 331 334 335 334 336 333 326 322 324 331 338 338 338 337 335 336 340 342 342 342 343 343 342 341 341 340 339 337 336 336 335 333 333 334 334 336 335 333 332 331 331 332 333 332 330 328 327 327 328 329 330 332 334 334 333 334 332 331 331 331 330 329 328
346 346 346 347 346 345 345 345 344 343 344 344 340 336 337 338 335 327 321 319 320 322 325 333 337 333 335 334 327 326 325 329 336 338 338 339 337 335 337 342 342 342 342 342 342 341 341 339 338 336 336 335 334 333 333 334 334 334 335 333 333 333 334 334 335 334 333 331 327 325 326 327 329 332 334 334 334 334 332 329 329 329 329 329 329
346 346 346 346 344 344 345 345 344 343 344 344 341 337 337 338 333 323 319 321 323 324 323 332 338 334 334 334 330 328 327 331 333 336 339 339 339 336 335 340 342 342 341 342 342 342 341 338 336 335 335 335 334 334 332 333 334 334 334 334 334 334 334 335 335 335 335 333 330 327 327 329 329 331 333 333 333 332 330 329 329 329 329 330 330
341 344 345 345 343 343 345 345 344 343 344 345 342 338 337 338 331 321 321 323 325 324 323 331 335 334 334 333 333 330 329 332 331 334 338 339 340 338 335 338 341 342 340 341 342 342 341 338 337 335 334 334 334 334 333 333 334 334 335 335 334 334 335 335 335 335 335 334 333 330 330 332 331 330 331 331 331 329 328 328 329 331 331 331 331
339 340 343 345 344 344 345 345 344 344 343 345 343 338 338 337 329 321 322 324 324 324 323 329 333 334 335 334 332 330 330 332 331 333 337 339 339 338 336 336 340 341 340 340 340 341 340 338 338 335 332 334 333 333 334 334 334 335 335 334 333 334 334 334 334 334 334 334 334 333 332 332 333 333 332 329 327 327 327 328 330 331 332 331 331
339 339 340 343 344 345 346 346 345 344 343 345 343 338 338 335 327 321 323 325 324 323 324 327 331 333 335 333 332 330 331 333 332 332 336 339 339 338 336 335 338 340 340 340 339 340 340 339 337 334 332 335 333 331 333 334 334 335 335 334 333 334 334 334 334 334 334 334 334 335 334 333 333 335 334 330 326 326 327 329 331 332 331 331 331
341 339 340 342 344 345 346 346 344 344 344 344 342 338 338 334 326 322 323 325 324 323 324 327 329 332 334 333 332 331 331 332 332 332 334 337 338 338 337 335 336 338 340 341 339 338 340 339 337 334 333 335 334 330 331 332 333 333 333 333 333 333 333 334 334 335 334 334 335 335 335 333 334 335 334 331 328 328 330 332 334 333 332 332 332
340 340 340 341 343 344 343 343 343 344 344 343 340 337 337 332 324 322 324 326 325 323 325 328 328 330 332 333 333 333 331 332 333 333 333 336 338 338 337 335 335 337 339 341 339 338 339 338 338 335 332 335 334 330 329 331 332 332 333 333 333 333 334 334 334 335 335 335 335 335 335 333 333 336 333 330 331 332 333 333 334 334 334 333 333
336 338 339 338 339 340 340 340 342 343 343 342 339 335 333 329 323 323 324 326 326 325 325 329 330 330 331 332 333 333 333 333 334 334 333 334 337 337 335 333 333 335 338 340 340 338 338 338 338 335 332 334 334 330 328 331 331 332 333 332 333 333 333 334 334 335 335 336 336 335 335 334 334 335 332 330 333 334 334 334 334 334 334 333 333
332 334 335 336 336 336 337 338 339 341 341 341 338 334 330 326 323 323 325 326 327 326 325 327 329 330 331 332 333 333 333 335 336 335 334 334 336 336 333 329 330 332 335 339 340 339 337 339 339 334 332 333 334 331 328 330 331 332 332 332 333 333 333 334 335 335 336 335 335 335 335 335 335 333 330 331 333 334 335 335 334 334 334 333 333
328 329 331 331 331 332 334 336 337 338 339 340 337 334 331 326 323 323 325 327 328 328 326 326 327 328 329 330 331 332 334 335 336 336 335 335 335 336 333 328 328 329 333 337 339 340 337 338 339 334 333 333 334 332 327 328 331 331 332 332 333 333 334 335 335 335 335 335 335 335 335 335 335 333 329 331 334 334 335 335 334 334 334 333 333
323 323 325 326 327 329 332 334 335 336 338 339 337 334 332 329 325 323 325 328 328 329 328 326 325 326 327 328 329 331 333 335 335 336 335 335 335 336 334 329 329 329 331 335 338 340 337 337 338 333 333 333 334 333 328 326 329 331 331 332 333 333 333 335 335 335 334 334 335 335 335 336 335 334 330 331 335 335 335 335 335 334 334 333 333
318 318 319 321 324 326 328 330 332 334 336 337 336 334 333 331 328 324 325 328 329 330 329 328 326 326 326 326 328 329 331 333 334 335 335 335 335 336 335 331 330 329 329 333 336 339 338 337 336 333 332 333 332 333 330 324 327 329 329 331 332 333 333 334 335 335 334 334 335 335 335 335 336 335 332 333 336 335 335 335 335 335 334 334 333
311 313 315 317 320 322 323 325 328 330 332 334 335 335 334 332 330 329 327 328 330 331 331 330 329 328 327 327 328 329 330 331 332 333 334 335 335 334 334 332 330 328 328 330 334 338 339 338 336 332 331 333 332 333 331 324 324 326 328 330 332 332 333 334 335 335 335 335 335 335 335 335 336 336 334 334 336 335 335 335 335 334 334 334 333
305 307 310 313 315 319 320 321 324 326 328 330 333 336 336 335 334 333 332 331 332 332 333 333 332 332 332 331 331 330 330 331 331 332 333 334 335 334 333 333 332 329 326 327 332 336 338 339 337 332 331 333 332 332 330 324 323 325 327 329 331 332 333 334 335 335 335 335 336 335 335 336 336 335 335 334 335 336 335 335 335 334 334 333 334
300 301 305 310 312 315 318 319 321 323 324 327 331 333 335 337 337 337 336 334 333 333 334 335 334 334 335 335 334 329 328 331 332 332 332 332 333 334 334 333 333 331 328 325 328 333 338 339 337 333 331 332 332 332 330 326 324 324 327 330 331 332 333 334 335 336 336 336 336 336 336 335 336 335 335 335 335 336 335 335 335 334 334 333 334
297 299 302 307 310 312 315 317 319 321 322 324 328 330 331 334 336 337 338 337 335 333 333 334 335 335 335 337 333 324 323 329 332 332 331 330 330 332 334 333 333 332 330 327 325 330 337 339 337 333 332 331 331 331 330 328 327 325 327 330 332 332 332 333 335 335 335 336 335 335 336 335 336 335 334 335 335 335 335 335 334 334 334 333 334
295 296 299 304 307 310 312 314 317 320 321 322 325 326 328 329 331 334 336 338 338 336 334 333 333 335 335 336 333 322 320 326 330 331 330 330 329 330 331 332 333 332 331 330 326 327 334 338 337 334 332 332 332 331 330 329 329 328 328 329 331 332 332 333 334 335 335 335 334 334 335 335 335 335 334 334 334 334 334 335 334 334 334 333 334
292 293 296 300 304 308 310 311 315 318 320 322 323 324 325 326 327 329 332 334 336 337 337 335 333 334 334 336 333 324 320 324 326 328 328 329 330 329 330 331 332 332 331 330 328 326 331 337 337 333 332 333 333 333 332 330 330 330 329 330 331 331 332 332 334 335 335 334 332 332 333 334 335 335 334 334 334 333 334 334 334 334 333 333 333
290 291 294 298 301 305 307 309 312 315 318 321 323 324 324 324 325 326 328 330 332 334 336 337 335 333 333 335 335 326 321 323 324 325 327 327 329 329 329 329 330 331 330 330 329 326 330 336 337 334 333 334 334 334 334 331 330 331 331 331 331 332 332 332 333 333 334 333 333 333 334 334 334 334 334 333 333 333 333 334 334 333 333 333 333
289 289 292 296 299 302 305 307 310 312 315 319 321 322 324 324 325 326 327 328 328 329 332 335 337 335 333 334 336 329 323 324 325 326 327 328 329 329 329 328 328 328 329 329 328 327 329 335 337 334 334 334 334 335 335 333 331 330 331 332 332 332 333 333 333 333 334 334 333 334 334 334 334 334 333 333 333 333 333 333 333 333 333 333 333
287 288 290 293 297 301 303 305 307 310 313 316 318 319 321 322 323 324 326 327 327 328 329 332 335 336 335 334 335 333 326 325 327 328 328 330 330 330 329 328 326 326 327 328 327 328 330 335 336 335 334 335 334 335 335 333 332 331 330 330 331 332 333 333 334 334 334 334 334 334 334 334 334 333 333 333 332 332 332 332 332 332 332 332 332
286 287 289 291 295 299 301 304 306 308 311 314 315 316 317 318 318 319 322 324 325 327 327 330 332 335 336 335 335 335 331 326 327 329 330 331 331 332 331 329 326 324 325 326 326 329 333 335 336 335 335 335 335 335 335 335 333 333 332 331 332 333 333 334 334 334 334 334 333 332 333 333 333 333 332 332 332 332 331 331 331 330 330 329 330
285 285 287 290 293 297 299 302 304 307 310 312 313 314 315 315 315 316 318 320 322 324 326 329 330 331 335 336 335 336 334 330 327 329 331 332 333 333 333 331 328 324 324 324 326 331 335 336 337 336 336 335 336 336 336 335 334 334 334 334 334 334 334 333 333 333 332 332 331 331 331 332 333 332 332 332 332 331 331 330 330 329 328 327 327
284 284 286 288 291 295 297 299 302 305 307 309 310 311 313 313 312 313 316 318 319 320 323 325 326 328 329 332 334 335 335 333 330 329 331 333 334 334 334 334 331 328 328 328 330 334 336 337 337 335 334 334 335 336 336 335 335 334 335 335 335 335 334 333 333 332 331 331 330 330 330 330 331 331 331 331 330 330 330 330 329 329 328 327 326
283 283 285 287 289 292 295 297 300 303 304 306 308 308 310 310 310 311 313 316 316 316 318 321 323 324 325 328 330 331 334 334 332 331 331 334 335 334 334 334 334 333 333 334 334 335 336 337 336 335 333 332 333 335 336 335 335 335 335 334 334 334 334 334 332 331 330 330 330 330 330 329 329 328 328 329 330 329 329 328 328 328 327 327 326
282 282 283 285 287 290 292 295 298 301 303 304 306 306 307 307 308 309 309 311 312 312 313 315 319 321 320 323 327 327 329 332 332 332 332 334 335 334 335 334 334 335 335 335 336 335 336 336 336 336 335 334 334 335 335 335 335 335 334 334 334 334 334 333 331 329 329 329 330 330 329 329 327 325 324 327 329 328 328 327 327 328 326 325 325
281 281 282 283 286 288 290 293 296 300 301 302 303 304 305 305 305 307 307 307 307 308 308 310 313 317 316 318 323 324 325 329 330 330 332 333 333 332 333 333 333 334 335 335 334 334 333 334 335 336 335 334 334 335 335 335 334 334 333 333 331 330 331 331 329 328 327 328 329 329 328 327 326 323 323 326 328 327 327 327 327 327 325 325 324
280 280 280 282 284 286 288 290 293 296 299 301 302 302 304 303 302 304 306 306 305 304 304 307 309 312 313 313 317 321 322 326 328 329 330 331 331 331 330 330 331 332 333 333 333 332 331 331 333 333 332 332 333 334 334 333 333 332 332 331 329 328 327 327 327 326 326 327 327 326 326 325 325 325 325 325 326 326 326 326 326 326 325 324 324
279 279 279 280 281 283 285 288 291 293 295 298 300 301 302 303 301 301 304 305 305 303 303 304 305 307 308 308 312 317 319 321 325 326 326 326 326 328 330 330 330 330 330 330 330 330 329 329 330 331 330 330 331 331 331 332 332 331 330 330 328 327 326 325 325 325 325 325 323 323 322 321 322 324 324 325 325 325 325 326 326 325 325 324 324
278 278 278 279 280 281 283 286 289 291 293 295 297 299 301 303 302 301 302 303 303 303 303 302 301 302 304 305 307 312 316 317 319 322 322 321 320 321 325 327 328 329 329 329 329 328 329 328 328 328 329 329 329 329 329 329 330 329 329 328 328 327 327 326 326 326 326 325 325 324 322 320 320 321 322 323 322 323 323 325 325 325 325 325 325
277 277 277 278 278 279 281 283 286 287 290 292 294 296 298 301 301 300 300 299 299 301 301 301 300 299 299 301 303 306 312 313 314 317 319 319 318 316 318 319 321 322 323 324 324 325 325 326 328 328 328 328 328 328 328 328 328 327 327 327 328 329 328 327 327 328 328 328 328 327 325 323 322 323 323 322 321 321 321 323 324 325 325 325 325
276 276 276 277 277 277 278 280 282 283 285 287 288 289 290 292 294 294 294 294 295 297 297 298 298 297 297 298 299 301 306 309 310 313 315 316 316 315 315 316 316 315 316 316 316 318 319 319 322 325 327 328 329 329 328 328 327 327 327 327 328 328 328 328 327 328 328 328 328 327 326 325 325 325 325 324 321 320 320 321 323 325 325 325 325
275 275 275 275 276 276 276 277 279 281 282 282 284 286 286 287 288 289 291 291 292 293 293 293 295 295 295 294 296 297 301 305 307 308 311 312 313 313 313 313 314 315 315 315 315 316 316 315 315 317 320 323 326 328 329 329 328 328 328 328 328 328 327 327 327 328 328 328 327 326 326 326 326 325 325 324 322 319 319 321 324 325 325 325 325
274 274 274 274 275 275 275 276 277 278 280 280 282 284 285 286 287 288 289 290 291 292 291 291 293 294 293 292 293 295 298 302 304 305 307 309 310 311 311 311 311 312 314 314 315 316 316 314 314 314 316 318 318 319 322 325 328 329 329 330 330 330 329 326 326 327 328 328 326 325 325 325 326 325 324 324 322 321 320 321 323 324 325 325 325
274 274 274 274 274 274 274 275 276 276 278 279 280 282 285 287 288 288 289 290 292 293 294 293 293 293 293 292 291 293 296 298 301 302 304 306 308 308 308 309 309 310 311 312 313 315 315 315 315 315 316 317 315 313 314 316 322 326 328 331 329 330 332 328 326 327 327 327 326 325 326 325 325 326 325 325 324 322 321 322 323 325 325 326 326
273 273 273 273 273 273 274 274 275 275 276 277 278 281 284 287 288 290 292 291 291 293 293 290 289 289 290 290 290 290 292 295 297 299 300 302 304 305 305 306 307 308 308 308 310 312 313 314 315 315 316 317 316 314 313 312 316 319 322 325 326 328 331 328 327 326 324 325 326 325 325 325 325 325 326 326 325 324 324 324 325 326 326 326 327
273 273 272 273 273 273 273 274 274 274 275 276 277 278 279 280 282 284 284 284 283 284 283 282 282 283 285 287 288 288 290 293 294 295 297 298 299 301 302 302 304 305 305 306 307 309 310 311 313 314 314 315 316 316 315 313 315 315 316 318 321 323 325 324 327 326 322 321 322 323 324 324 325 325 325 326 326 326 326 326 327 327 327 327 327
272 272 272 272 272 272 273 273 273 273 274 274 275 276 276 276 277 278 278 278 279 279 278 278 279 280 282 285 287 288 289 291 293 294 295 295 296 297 298 299 300 301 303 304 304 306 308 310 311 312 313 314 315 316 316 315 315 314 313 314 316 319 320 321 324 325 324 321 318 319 321 321 323 323 324 325 325 325 326 326 326 326 326 326 326
272 272 272 272 272 272 272 272 272 273 273 273 274 274 275 275 275 276 276 277 277 277 277 277 278 279 281 283 285 287 289 289 290 292 294 295 295 295 296 297 298 299 300 301 302 304 306 308 309 310 311 312 313 314 315 315 315 313 312 313 314 316 317 318 320 321 324 323 319 317 316 317 318 319 321 323 323 323 324 325 325 325 325 325 326
271 271 271 271 271 271 271 272 272 272 273 273 273 273 273 274 274 275 275 275 275 276 276 276 277 278 279 281 282 284 286 288 288 289 291 292 292 293 293 294 295 297 298 299 300 302 304 306 307 308 309 309 310 311 313 314 314 313 312 312 312 315 315 315 317 319 320 321 321 319 316 314 314 315 317 318 319 320 321 323 323 323 324 324 325
271 271 271 271 271 271 271 272 272 272 272 273 273 273 273 273 273 274 274 274 274 274 275 275 276 277 278 278 279 280 282 284 285 285 287 289 290 290 291 291 292 294 295 297 298 300 302 303 305 306 307 307 308 309 311 312 313 313 313 313 312 314 315 314 316 318 319 319 319 319 317 314 313 313 313 312 313 315 316 319 321 322 322 323 323
271 271 271 271 271 271 271 271 271 271 272 272 272 272 273 273 272 273 273 273 273 273 274 274 274 275 275 276 277 278 278 279 280 282 284 286 287 288 289 289 291 292 293 295 296 297 299 301 302 304 305 306 307 308 308 309 311 312 313 313 313 313 313 314 316 317 318 318 318 317 314 312 312 310 309 309 309 309 310 311 314 317 318 319 320
Wind_Speed
15 20 20 21 20 19 18 17 17 19 20 19 19 18 18 17 16 15 14 14 13 13 11 11 9 7 5 3 7 11 12 12 10 10 12 12 14 16 17 18 17 17 16 15 14 15 16 17 16 16 16 17 17 16 16 16 15 16 16 18 20 20 20 21 22 22 21 20 19 19 18 17 15 15 15 15 15 17 17 17 18 18 18 16 15
17 21 21 21 21 21 19 18 18 18 19 18 18 17 17 16 16 15 14 14 13 13 12 12 10 9 7 4 7 11 13 12 11 10 11 11 14 16 17 17 16 16 16 16 15 15 16 17 17 17 16 16 17 17 17 16 16 15 16 18 20 21 21 21 22 22 21 19 19 19 18 17 15 14 15 15 15 18 18 18 18 18 17 16 16
15 22 23 22 22 21 20 19 19 18 18 18 17 17 17 16 15 15 14 14 14 14 14 13 12 11 9 5 6 12 14 13 12 11 11 11 14 17 17 16 16 17 17 16 16 16 17 17 17 16 16 16 17 17 17 16 16 16 17 20 19 20 21 21 23 21 19 19 20 20 18 17 16 15 15 15 16 17 18 18 18 18 16 15 15
14 21 23 23 23 22 21 19 19 18 18 18 17 16 16 16 15 15 14 13 13 14 14 14 14 12 11 7 6 13 15 14 13 12 12 11 13 16 18 18 17 18 17 17 17 16 17 16 16 16 16 16 16 17 17 18 18 17 18 19 19 21 21 22 22 21 20 20 20 20 20 18 16 15 16 16 16 16 17 17 16 16 15 15 14
14 20 23 24 24 23 22 20 20 19 18 18 17 16 16 16 15 14 13 13 13 13 14 15 16 14 13 10 7 14 16 15 14 14 13 11 11 14 17 20 19 18 17 17 16 16 17 17 16 16 16 16 16 17 18 19 19 19 19 19 20 22 22 22 22 21 21 21 21 20 19 18 16 15 15 16 15 15 16 16 15 15 14 13 13
15 19 23 24 25 24 22 21 20 18 18 18 18 17 17 16 15 14 13 13 14 13 14 14 16 15 14 12 9 14 16 15 15 14 14 11 10 13 17 19 20 20 19 18 17 16 17 17 17 16 17 16 16 17 18 19 20 20 19 19 20 20 20 20 20 20 21 21 20 20 19 17 16 16 15 15 15 15 16 16 14 14 13 12 13
16 19 22 25 26 25 23 21 19 18 18 19 19 19 17 17 15 14 14 13 14 14 14 14 15 16 16 14 11 15 17 15 15 15 15 12 10 11 15 18 19 21 20 18 18 18 18 18 17 17 18 17 16 17 18 20 20 20 19 19 20 18 18 18 17 18 18 19 20 20 18 17 17 16 15 15 15 15 15 15 14 13 12 12 13
15 18 21 25 26 26 24 23 21 21 22 21 21 20 18 16 14 14 14 13 13 14 15 15 15 16 16 15 13 14 16 15 15 16 15 13 11 9 12 16 17 19 18 17 18 19 19 18 18 17 18 17 16 17 19 20 21 20 19 20 20 19 19 18 17 16 16 16 17 18 18 18 17 16 14 14 15 14 14 13 13 13 13 12 12
13 17 21 24 26 25 25 26 26 26 24 21 21 20 18 16 14 14 14 13 13 13 15 16 15 16 16 16 15 14 15 15 14 16 16 14 12 10 10 13 15 18 18 18 20 20 19 19 19 17 18 17 16 17 19 20 21 22 21 21 21 21 20 17 16 15 14 13 13 15 17 18 17 16 14 12 13 12 12 12 12 12 13 12 11
13 17 20 21 23 25 25 27 26 25 22 21 21 20 18 16 15 15 14 13 12 13 15 17 16 16 16 17 16 14 13 14 14 15 16 14 12 11 10 10 13 16 17 19 21 21 19 19 19 18 17 17 17 17 19 20 22 24 23 22 22 21 20 17 14 12 11 12 12 12 15 16 16 16 13 12 12 11 11 11 11 12 12 13 11
9 14 18 20 21 25 26 26 26 24 23 22 21 20 19 18 16 16 14 12 12 12 15 19 17 16 17 17 16 14 13 14 14 13 16 15 11 12 12 11 12 14 16 19 20 20 19 18 18 18 16 16 17 18 20 22 23 24 23 22 22 21 19 17 14 10 9 10 11 11 13 13 15 15 14 13 12 11 11 10 10 11 11 11 10
2 9 16 21 21 24 27 28 27 25 23 23 22 21 20 19 18 17 15 13 12 12 16 20 17 15 17 16 16 15 13 14 14 13 16 16 12 12 13 12 10 10 16 20 19 20 19 17 17 17 17 17 18 18 20 22 24 24 22 21 22 21 19 16 11 7 9 12 11 11 11 11 13 13 12 13 12 12 11 10 10 10 10 9 9
2 4 12 20 23 25 29 29 28 26 24 23 23 23 21 20 19 17 15 13 12 12 16 20 17 15 17 17 16 16 14 14 14 14 16 17 13 12 13 12 11 9 15 19 18 20 19 18 17 16 17 17 18 19 21 22 24 24 22 22 23 21 17 13 9 8 12 14 12 10 9 10 12 12 11 11 12 12 11 10 10 10 10 9 8
4 1 6 16 22 25 29 30 28 27 25 24 25 24 22 21 20 18 16 14 13 13 16 18 18 17 16 17 16 16 15 14 15 15 16 17 14 13 13 13 12 10 12 16 18 19 20 20 19 16 17 17 17 19 21 22 24 24 23 24 22 20 16 12 9 10 14 15 13 10 9 10 12 12 11 11 11 12 11 11 10 9 9 8 8
5 1 5 13 20 22 23 27 26 24 24 23 24 25 23 21 20 18 17 15 14 14 17 17 18 17 16 16 15 16 16 16 16 16 17 17 16 14 14 14 13 11 11 14 18 20 20 20 19 16 17 17 18 20 22 23 25 25 24 24 22 19 15 11 10 13 16 15 13 9 7 9 12 12 11 12 12 11 12 11 10 9 8 8 7
6 2 5 9 15 18 16 19 23 21 21 21 21 23 23 22 20 19 17 16 15 15 17 18 18 17 16 16 16 16 17 17 17 17 17 17 17 16 15 15 15 13 12 13 16 20 19 18 18 16 17 17 18 21 23 25 25 25 24 23 21 18 16 13 12 16 17 15 13 9 7 8 11 12 12 13 12 12 12 11 10 9 8 8 8
8 4 1 4 6 12 11 12 19 21 21 21 21 22 23 22 21 19 18 16 16 16 17 18 18 17 17 17 16 17 17 18 18 18 18 18 18 16 16 16 16 15 13 12 15 19 18 17 17 16 17 17 18 22 25 26 25 24 24 22 20 18 16 15 15 17 18 16 13 9 8 8 10 12 12 13 13 13 12 11 10 9 8 8 8
16 11 8 8 7 4 7 9 15 19 21 22 21 22 22 22 21 19 19 17 16 17 17 18 17 17 17 17 17 18 18 18 19 19 19 19 18 17 17 17 18 16 15 14 15 19 20 18 17 16 16 17 18 21 25 28 26 25 24 22 20 17 16 16 17 17 17 16 13 10 10 9 10 12 13 14 14 13 12 11 10 10 10 9 8
22 19 16 13 13 13 6 4 8 11 16 23 20 21 22 20 21 20 18 18 17 17 17 17 17 17 16 16 17 18 18 19 19 19 19 19 18 18 18 18 18 17 16 15 15 18 20 18 17 16 17 19 19 20 25 29 27 25 24 22 20 17 15 17 18 17 16 15 13 12 11 10 10 11 14 15 14 14 12 11 11 11 10 9 9
25 24 22 19 17 15 10 5 3 6 7 19 21 19 21 20 20 20 19 18 17 18 17 17 17 17 17 17 17 18 19 19 19 20 20 19 19 19 19 19 17 17 17 16 15 17 18 18 18 16 17 20 20 21 23 28 28 25 24 22 20 18 16 16 17 17 16 14 14 13 12 12 11 11 14 15 14 14 12 11 11 11 10 10 9
26 27 27 25 21 18 14 11 6 6 5 9 20 20 19 20 20 19 19 19 18 18 18 18 18 17 17 18 18 19 20 21 21 20 20 20 20 20 20 19 18 17 17 17 15 15 16 17 18 17 16 18 20 22 22 25 29 26 24 23 21 19 17 16 17 17 16 15 14 14 13 13 12 12 13 15 15 14 13 12 10 10 10 10 9
28 29 29 28 25 23 20 16 13 9 8 3 11 19 20 20 20 20 20 20 20 19 19 19 18 18 18 19 19 20 22 22 23 22 22 21 21 21 21 19 18 17 17 17 16 16 17 17 18 17 17 18 20 23 22 23 27 27 26 24 23 20 18 17 17 18 17 16 15 14 13 13 13 11 12 14 15 14 13 12 11 10 10 9 9
29 30 30 30 27 25 24 21 19 14 12 10 4 9 17 21 20 20 20 20 20 20 20 20 19 19 19 20 21 22 23 24 24 24 24 23 22 22 23 21 19 18 18 18 18 18 18 17 18 18 18 19 21 24 23 22 26 29 28 26 24 21 19 18 17 17 17 16 15 14 13 14 14 12 13 14 15 14 13 12 12 11 10 10 9
26 29 30 29 28 26 25 25 22 19 18 15 10 5 5 13 18 20 21 20 20 21 21 21 21 21 21 21 21 23 25 26 26 26 26 25 24 24 24 24 22 20 19 18 19 19 19 18 18 18 19 20 22 24 23 22 24 29 30 27 26 23 20 19 17 17 16 16 15 14 14 14 14 13 13 15 15 14 13 12 11 11 10 10 9
24 29 30 28 28 28 26 25 24 22 22 20 15 11 7 2 8 14 21 22 19 20 21 21 22 22 22 23 22 22 25 26 27 26 26 27 27 27 26 25 25 23 21 20 20 21 21 21 20 20 20 21 22 23 23 22 23 27 30 29 27 24 21 20 18 17 17 17 15 14 14 14 14 13 13 14 16 14 12 11 10 10 11 10 10
27 31 31 29 27 27 26 26 25 23 21 20 18 16 13 10 6 4 12 20 20 20 21 22 23 23 23 23 23 22 24 26 27 27 27 28 28 29 28 27 27 26 23 21 21 22 23 23 22 22 22 23 22 22 22 21 21 25 28 29 28 25 22 21 20 18 18 18 16 15 15 14 14 14 13 13 15 15 13 13 11 11 11 11 11
28 31 31 30 28 26 26 26 26 24 22 20 18 17 16 15 13 10 5 8 15 19 22 24 23 25 24 24 25 24 24 25 27 27 28 28 29 31 31 30 29 28 26 23 23 24 25 25 24 24 25 24 22 21 20 20 20 22 25 27 27 26 24 23 23 22 21 20 19 17 16 16 15 14 13 13 14 15 15 13 12 12 13 13 12
28 32 31 30 29 27 27 27 26 24 24 21 19 18 17 17 15 12 12 9 6 10 16 24 26 26 26 26 26 26 26 26 26 27 27 28 29 30 31 32 31 31 28 25 25 26 26 27 26 26 27 25 23 22 21 20 21 21 23 25 26 26 26 25 24 25 24 23 21 19 18 18 18 17 15 14 14 14 15 14 13 13 14 14 14
30 32 32 31 29 28 27 27 26 26 24 22 21 20 18 17 16 14 14 13 11 12 12 16 25 28 27 27 28 29 28 27 27 27 26 27 28 29 31 32 33 32 29 27 28 28 28 29 29 28 29 28 26 25 23 22 22 22 23 24 24 25 26 26 26 26 26 24 23 21 20 19 19 19 17 16 15 15 15 15 15 15 15 15 16
29 31 32 32 30 27 27 27 26 26 25 23 22 21 20 19 18 17 14 14 13 13 15 10 16 26 29 29 29 31 31 30 29 28 28 27 27 28 29 31 33 34 31 29 30 29 29 29 31 31 30 30 29 28 27 26 25 25 25 25 26 27 27 27 26 26 25 24 23 22 21 20 20 20 19 17 16 16 17 17 16 16 16 16 17
29 33 33 32 30 28 27 26 26 25 24 23 22 21 21 21 20 18 15 14 13 11 14 14 9 17 27 31 31 31 31 32 31 30 29 28 28 28 28 29 31 34 34 32 30 29 29 29 31 32 32 32 31 31 30 29 28 27 27 27 28 28 28 27 26 25 25 24 24 23 22 21 21 20 20 19 18 18 19 19 18 18 18 18 18
28 31 32 31 30 28 28 26 26 25 24 23 22 22 21 21 20 18 17 16 15 13 12 14 10 6 17 26 31 33 32 32 32 31 31 30 29 29 29 29 29 31 33 32 30 29 29 29 32 34 34 34 33 33 31 30 30 29 28 27 28 27 27 27 26 25 25 25 25 25 24 23 23 22 21 21 21 20 20 20 20 20 20 20 20
25 29 31 31 30 29 28 27 25 24 24 23 23 22 21 21 21 19 18 17 17 16 14 14 13 8 5 11 20 29 33 32 32 32 30 30 30 29 29 30 30 29 30 30 29 29 29 30 32 33 33 32 33 33 31 30 31 31 29 28 28 27 26 26 26 26 26 27 27 27 27 26 26 25 25 24 24 23 22 21 21 21 20 20 21
25 29 31 31 31 30 28 27 25 24 23 23 23 23 23 22 22 21 19 18 19 19 18 16 15 14 11 4 4 11 22 29 30 31 30 29 30 30 29 29 30 30 29 29 30 30 30 30 31 31 31 30 31 32 31 31 32 31 31 29 29 29 28 27 28 28 28 29 29 28 28 28 28 27 27 26 25 25 24 23 22 21 20 20 21
26 29 30 30 31 30 29 28 25 23 23 23 23 23 24 24 23 23 22 21 21 22 21 20 18 18 18 12 5 6 4 16 22 25 28 30 30 30 31 30 29 30 29 30 30 30 30 31 31 31 30 30 30 31 31 31 31 31 31 30 30 29 29 30 29 29 29 29 29 29 28 27 27 27 27 27 26 26 25 24 23 22 21 21 21
25 27 29 31 31 31 30 28 25 23 22 22 23 23 23 24 23 24 25 24 24 25 24 24 22 19 22 20 12 13 13 5 12 16 18 24 28 26 27 29 29 30 29 29 28 28 28 29 31 31 31 31 31 32 32 32 32 32 31 30 29 29 30 31 30 29 28 28 28 28 27 27 27 27 27 27 27 26 26 25 24 23 23 22 21
25 26 29 31 32 33 32 30 27 25 23 21 21 22 23 24 24 25 26 27 28 29 28 26 26 23 23 26 20 16 17 13 6 8 5 9 19 20 19 20 23 27 28 28 29 28 29 29 31 31 31 31 32 32 32 33 33 32 32 31 30 30 30 31 30 30 29 30 30 29 29 29 29 30 29 28 28 27 26 26 25 25 24 23 22
27 26 28 31 32 34 34 32 29 26 24 22 21 20 21 23 25 26 26 28 29 30 30 29 29 28 27 28 26 21 19 18 13 8 8 9 3 7 12 13 15 21 23 24 25 27 27 28 30 31 32 32 32 32 32 33 34 33 33 32 32 31 32 32 32 32 32 32 31 31 31 32 32 33 32 32 31 29 27 27 26 26 26 25 24
30 29 30 33 33 34 36 34 31 29 27 24 21 19 19 20 22 25 26 28 30 30 31 32 32 31 30 30 29 26 23 21 18 14 14 18 19 14 7 5 5 10 15 15 15 18 21 24 27 28 30 32 33 33 33 33 33 33 33 33 33 32 32 31 30 28 28 28 28 28 30 31 31 31 32 32 32 31 30 29 29 28 27 26 25
33 33 34 36 36 36 37 37 35 32 30 27 25 23 21 20 22 26 27 28 29 30 31 32 33 33 32 31 31 30 27 26 24 20 18 20 23 25 23 20 16 13 10 8 6 2 3 10 19 24 26 29 31 32 32 32 32 31 32 33 33 32 32 31 29 27 26 26 25 25 27 27 26 27 27 29 30 31 31 30 30 29 28 27 26
35 36 36 37 37 36 37 39 38 35 33 31 30 28 26 24 23 24 26 28 29 30 31 32 32 33 33 32 32 31 30 29 29 27 24 25 25 25 26 25 23 23 21 18 18 17 15 13 6 9 15 21 27 30 31 31 26 22 23 28 32 33 33 33 31 29 28 28 28 27 27 26 26 26 26 27 28 30 31 31 29 29 29 28 27
33 35 35 35 36 37 37 38 39 38 35 32 29 28 26 22 20 19 20 24 27 29 30 32 31 31 33 33 32 32 31 30 29 29 27 25 24 24 25 25 24 23 21 20 20 19 18 20 21 16 11 8 12 20 28 29 24 20 16 16 21 26 31 35 35 33 31 32 32 30 29 29 30 30 29 28 28 29 31 31 30 29 29 29 28
30 33 34 34 35 37 36 36 38 38 37 34 30 27 24 22 20 19 19 22 25 27 28 29 29 29 31 33 33 32 31 29 28 27 26 23 22 22 22 23 23 22 21 20 19 19 19 19 20 19 18 16 12 8 8 14 20 23 19 10 7 11 17 23 29 34 34 32 32 31 29 29 30 30 31 31 31 30 31 32 32 31 31 30 29
30 33 34 33 34 35 34 34 35 37 37 35 33 28 24 23 22 22 21 21 22 24 25 28 30 30 31 33 33 32 31 29 27 26 26 24 22 21 21 21 21 21 21 20 19 19 19 19 17 16 15 16 16 16 16 13 7 5 8 7 4 5 7 10 18 27 31 30 30 30 29 28 29 28 29 31 32 32 32 33 33 32 31 31 30
30 31 32 32 31 33 33 32 33 36 36 36 36 34 29 27 25 26 25 24 26 27 29 32 34 34 33 32 32 31 30 29 28 27 26 25 23 22 21 20 20 21 20 20 18 17 16 16 15 14 13 13 14 14 17 18 18 19 12 4 1 2 5 5 10 14 20 26 27 28 29 28 28 28 27 28 30 31 32 33 32 32 31 31 30
28 28 29 30 30 32 32 33 34 35 36 36 36 36 37 36 33 30 28 29 30 30 30 31 33 34 32 31 31 31 30 29 28 27 26 26 25 24 23 22 20 20 20 19 18 17 16 15 14 12 11 10 11 12 16 17 16 19 19 14 9 6 7 3 5 3 8 17 21 23 26 27 27 27 27 27 28 30 31 31 31 31 30 30 29
26 27 28 30 31 32 33 33 34 35 36 36 36 35 36 38 36 31 27 26 26 26 28 28 30 32 32 31 31 31 31 30 29 27 26 26 26 25 24 23 22 20 19 19 20 19 17 15 13 12 11 10 11 11 14 16 14 15 18 17 15 15 15 9 3 1 1 6 12 19 23 24 26 27 28 29 29 29 30 30 29 29 29 29 29
25 27 28 30 30 31 32 33 34 35 36 36 36 36 34 34 35 34 31 28 25 25 29 31 32 33 35 34 33 33 32 31 31 29 27 26 26 26 25 24 23 22 21 20 20 19 17 16 13 13 12 10 11 11 12 13 14 16 17 17 18 18 18 16 14 8 1 1 4 11 16 20 22 23 26 27 29 29 29 30 29 29 29 28 29
25 26 27 28 29 30 32 33 35 36 36 36 37 37 35 33 33 35 35 33 30 30 32 35 35 36 37 37 36 35 34 33 33 31 29 27 27 26 26 25 24 23 23 22 20 19 18 17 15 14 13 11 11 10 11 12 12 14 16 17 17 18 17 16 19 16 6 3 3 2 8 13 16 19 23 24 25 26 26 28 29 29 29 29 30
25 26 27 29 30 31 32 34 35 35 35 36 37 37 37 36 34 33 34 35 35 35 36 38 38 38 39 39 38 38 37 35 35 34 31 29 28 27 27 27 26 24 23 23 22 20 19 17 16 14 14 14 13 12 12 12 11 10 11 13 14 15 13 11 14 15 7 3 2 3 5 6 8 11 16 18 19 20 22 25 27 29 29 29 30
26 27 28 30 31 33 35 36 34 33 34 35 36 37 37 37 35 33 32 33 34 36 38 38 39 39 39 39 39 39 39 38 37 36 34 32 30 29 28 28 27 25 24 23 23 22 21 18 16 15 15 16 16 15 14 14 12 9 8 9 10 10 9 7 11 13 8 4 4 4 4 3 4 5 8 13 16 16 17 19 22 25 26 27 27
Wind_Direction
194 187 184 182 183 177 177 176 171 170 169 168 165 165 163 161 161 161 161 161 162 164 162 160 157 153 148 134 157 160 158 158 158 163 162 159 156 154 154 153 154 155 151 150 152 152 149 149 149 147 146 145 144 142 141 141 139 137 136 136 134 133 130 127 127 126 121 118 117 115 114 113 113 111 111 111 112 111 110 109 107 104 100 98 96
195 190 190 185 187 183 181 179 175 174 173 172 171 170 170 168 167 168 166 166 167 171 171 170 169 166 165 155 161 163 161 162 163 166 166 166 162 157 152 153 156 154 150 150 149 146 145 147 148 147 147 147 146 145 145 143 143 142 142 142 141 138 135 133 130 126 123 124 123 118 116 116 115 114 114 113 112 112 110 109 107 105 102 100 98
199 191 192 188 186 187 185 182 179 179 178 177 176 175 175 175 173 174 172 171 170 174 179 179 178 176 175 170 170 165 163 167 170 169 170 174 170 163 155 152 156 154 151 151 147 143 141 141 142 143 144 146 145 145 147 147 146 145 147 146 144 145 141 136 130 129 131 129 123 117 116 118 117 118 117 115 115 113 108 106 104 103 103 101 99
201 193 192 191 188 187 188 184 181 182 182 180 180 178 179 179 177 179 177 177 175 175 180 185 187 184 180 179 177 168 169 174 175 173 173 179 175 169 159 155 158 156 154 153 150 145 141 141 142 143 143 144 145 145 146 148 148 146 149 147 145 146 141 138 137 137 136 128 123 120 121 123 123 123 123 122 118 112 107 106 106 106 105 101 100
194 195 193 192 189 188 190 185 182 183 183 181 182 182 183 181 180 183 182 184 183 180 179 185 191 189 185 184 180 173 176 180 178 176 175 180 180 175 165 159 159 160 161 158 154 149 144 146 146 146 145 145 145 144 146 147 149 147 146 147 145 145 145 146 146 141 136 129 126 124 124 127 126 126 128 123 117 114 112 111 110 109 107 104 102
187 192 194 192 190 189 189 186 184 182 184 185 185 186 186 185 184 184 186 191 188 187 184 185 192 193 190 187 183 178 181 183 180 177 174 180 188 182 171 167 165 166 167 162 157 150 147 149 150 149 147 148 149 149 149 148 149 148 146 149 147 148 150 150 146 141 137 133 130 128 129 128 125 127 128 125 124 124 121 117 115 114 111 109 106
187 189 193 192 192 190 189 187 183 181 188 191 191 190 189 189 188 188 191 195 190 188 187 187 192 194 192 188 186 184 185 185 182 180 177 179 192 189 178 177 174 171 169 166 160 152 150 152 155 154 151 152 155 157 154 152 150 148 148 149 148 145 145 143 142 141 140 138 136 135 133 130 129 129 131 131 133 132 126 121 119 119 116 112 113
191 194 194 193 193 191 190 188 186 188 192 194 197 194 191 190 192 196 199 200 196 192 190 189 191 193 191 188 191 190 189 188 185 183 180 178 188 197 188 183 181 177 170 170 164 153 153 156 160 159 156 156 158 162 159 159 155 150 150 149 146 141 140 141 138 137 138 140 140 140 137 136 135 132 134 133 135 135 133 131 126 125 124 122 123
201 197 193 193 193 192 193 194 195 195 191 192 199 195 192 193 196 201 203 204 204 201 195 191 191 194 191 187 193 194 191 191 188 185 184 179 182 200 198 183 183 184 175 171 165 154 158 162 166 167 163 160 159 163 163 163 160 155 153 153 149 142 140 140 137 134 134 135 139 143 141 140 134 133 139 138 137 139 143 144 138 134 132 127 120
205 197 190 192 193 198 201 200 199 197 191 193 199 195 193 196 199 202 201 203 206 207 197 190 192 196 191 186 193 195 192 192 190 188 187 180 178 194 200 186 185 192 180 170 165 157 164 170 172 173 166 162 160 164 164 161 161 158 156 156 152 145 142 139 136 135 136 135 137 143 143 141 136 139 146 143 143 148 152 152 143 137 131 123 114
209 201 193 196 200 206 207 204 203 199 193 195 201 196 195 199 201 203 199 201 206 203 189 186 192 196 191 186 191 194 193 194 192 189 187 181 179 192 197 193 189 198 186 172 171 162 166 176 176 176 168 163 164 165 164 161 162 160 158 158 155 150 145 144 142 140 156 152 142 145 148 145 142 147 152 151 154 161 161 153 140 132 127 123 123
196 205 200 205 208 211 210 208 205 200 196 197 202 200 198 200 200 202 198 199 204 192 180 184 191 193 189 187 190 192 194 195 193 189 189 185 182 193 196 195 192 198 189 181 179 167 166 176 176 176 170 167 170 169 166 164 164 162 161 160 158 158 157 158 156 159 181 171 154 151 157 157 148 149 158 160 163 167 165 156 140 132 134 135 135
85 198 215 216 212 212 210 210 207 200 198 199 203 202 201 202 200 201 196 196 201 186 179 185 189 192 189 188 192 193 195 196 194 190 190 190 186 193 197 197 193 195 197 191 182 168 165 175 177 175 170 169 176 175 171 170 168 166 164 163 162 165 166 167 173 186 187 177 165 157 162 168 157 155 165 167 166 166 166 160 147 142 146 146 145
69 152 237 228 217 213 211 210 207 202 200 201 205 203 202 203 200 199 195 194 195 185 180 184 187 192 191 190 196 196 198 198 197 193 191 194 190 191 198 201 199 197 203 197 186 173 168 176 184 179 170 172 181 181 176 175 173 170 166 165 166 167 169 171 181 190 184 178 174 165 169 178 169 166 172 173 170 168 169 167 157 154 156 152 152
75 134 232 231 217 212 217 212 205 204 204 204 206 205 204 204 202 199 195 193 191 185 181 184 188 192 196 196 199 200 203 202 200 198 193 196 197 195 194 198 203 199 199 199 191 182 174 178 189 186 176 177 184 184 179 178 175 172 169 167 170 169 168 169 179 185 181 179 177 173 177 185 181 175 180 180 176 174 176 176 168 167 170 165 163
85 130 229 243 224 214 224 216 204 206 209 211 211 209 209 204 203 200 196 194 190 188 185 187 192 195 200 200 200 203 206 207 205 203 198 197 199 199 195 195 201 201 199 203 196 189 184 183 191 191 183 182 186 185 180 179 177 175 174 173 175 172 167 163 172 180 180 180 177 182 185 185 184 183 189 185 183 185 185 184 175 174 180 179 176
70 61 352 336 263 232 244 230 208 208 211 215 214 213 214 207 205 202 198 196 191 191 190 190 195 197 201 202 202 204 206 209 208 207 204 199 198 201 199 196 200 203 200 202 198 193 192 190 193 194 189 187 188 187 182 180 181 180 179 180 180 174 167 163 169 176 180 181 180 193 197 191 189 192 199 189 187 194 193 190 182 181 191 193 188
58 52 44 42 25 339 283 254 220 217 215 213 211 213 217 211 208 206 201 200 196 194 195 194 196 199 200 202 205 206 206 208 210 210 206 201 200 201 201 200 202 204 201 202 200 197 196 195 198 198 192 191 191 190 183 181 184 184 184 185 183 176 168 164 167 172 179 182 184 200 205 202 200 204 208 195 192 200 197 193 190 190 198 202 196
51 50 49 47 38 32 10 281 242 242 224 209 208 211 215 216 211 209 207 203 202 199 200 200 199 200 201 201 205 207 207 208 210 212 209 203 202 201 200 201 203 204 203 206 204 202 201 197 202 204 196 192 194 195 184 181 186 186 188 189 184 178 169 168 169 172 180 185 190 204 211 211 214 217 212 202 200 205 202 198 200 199 203 211 205
42 42 42 40 38 37 37 23 292 296 253 207 206 211 213 218 216 212 211 208 207 205 206 207 206 205 206 206 206 207 207 209 211 213 212 207 204 203 202 202 204 205 205 209 207 205 205 200 205 210 202 197 198 199 187 181 186 188 192 192 186 181 174 173 176 178 187 192 196 207 216 217 220 222 214 208 206 209 209 206 208 206 207 216 213
33 33 34 33 36 38 34 25 10 348 340 210 209 216 215 218 220 216 214 214 212 210 211 212 212 211 211 212 211 211 210 210 211 212 215 212 209 207 205 203 206 207 205 209 209 205 206 203 209 215 209 204 203 204 196 183 185 191 195 195 190 186 179 177 180 184 192 197 199 209 220 225 224 218 214 215 213 213 216 214 213 214 215 217 213
24 26 28 29 32 34 32 25 21 18 18 42 203 213 217 219 223 221 218 219 217 214 214 214 216 214 213 214 215 217 215 214 212 212 216 217 216 213 211 211 212 213 209 208 210 209 205 203 212 218 211 208 207 208 203 186 184 192 197 199 196 192 185 181 182 186 194 199 203 211 218 226 226 216 216 223 223 220 218 217 216 221 225 219 210
19 20 22 24 27 29 29 27 24 23 26 35 89 193 210 216 222 225 224 223 220 217 217 217 219 219 217 216 218 221 220 217 214 214 215 218 220 219 219 220 220 221 217 211 211 213 209 207 217 219 210 210 210 210 207 190 185 192 197 200 199 196 191 187 186 189 195 200 207 213 216 225 227 222 222 225 228 227 222 219 221 223 225 219 213
12 17 19 21 23 24 27 27 25 24 26 31 47 76 199 218 220 224 227 227 224 221 219 219 222 224 223 221 221 222 222 220 217 216 216 218 221 221 220 223 225 225 225 218 212 214 214 211 217 218 209 209 212 213 212 199 189 193 197 199 200 199 197 193 191 193 198 203 210 215 219 228 231 231 231 227 228 232 228 223 224 226 223 216 214
12 18 20 20 21 21 22 25 25 24 26 28 35 42 37 296 233 230 230 229 229 228 225 223 223 225 225 224 224 222 220 220 219 218 218 219 221 222 221 223 226 227 228 224 215 213 214 211 213 214 209 208 213 214 215 207 196 195 198 199 201 202 203 200 198 199 203 206 212 218 223 230 235 240 239 231 231 234 233 230 228 227 224 215 214
17 19 19 19 19 20 20 22 25 26 28 29 28 30 33 29 5 299 241 232 231 234 234 230 227 226 226 224 224 221 218 219 220 220 221 221 221 222 223 223 226 229 229 227 219 213 214 212 209 210 210 211 216 218 218 215 204 199 201 203 204 206 209 207 205 207 209 211 217 222 226 230 236 241 237 231 234 235 233 234 232 227 226 220 217
16 17 18 18 18 20 20 21 24 24 28 32 30 26 27 28 22 16 353 258 238 238 239 236 234 230 227 224 223 221 216 218 221 221 222 223 223 222 222 223 225 228 230 229 224 216 214 213 208 209 213 214 218 223 223 220 213 206 204 206 209 212 213 212 210 212 217 222 226 226 227 233 238 238 232 229 234 236 235 235 233 232 231 226 222
16 17 18 19 17 18 19 21 24 22 23 30 32 28 25 26 25 21 16 360 303 274 254 240 236 234 231 226 223 222 218 217 219 220 221 223 225 224 222 221 223 227 230 229 226 219 215 213 210 209 213 216 220 225 225 219 217 214 211 209 211 213 214 214 213 215 220 227 230 229 230 236 240 236 227 226 230 234 237 237 236 238 238 234 228
16 16 18 18 18 17 19 21 23 23 24 29 33 33 30 28 30 24 12 4 354 340 312 253 235 232 232 229 225 223 220 219 220 220 221 223 226 226 223 221 220 223 227 227 224 221 218 214 212 212 214 216 220 224 224 218 215 216 217 217 217 218 218 217 218 219 221 225 229 232 235 238 238 234 228 227 230 233 237 239 238 239 241 241 238
14 16 18 17 17 18 19 21 23 23 25 31 35 37 37 34 33 30 17 6 360 346 337 307 243 231 229 230 227 224 223 222 221 221 223 225 226 227 226 223 220 220 223 224 222 221 221 217 214 213 215 218 221 225 224 222 220 218 218 220 223 226 225 224 223 223 223 225 229 234 239 240 237 235 234 233 233 235 239 241 240 240 241 243 244
14 16 17 16 17 19 20 21 23 24 27 32 35 37 40 37 32 30 27 17 10 357 343 340 296 239 230 229 227 225 224 224 224 224 224 226 227 228 228 225 222 219 219 220 219 221 223 222 218 216 217 219 222 226 226 226 226 223 220 220 225 228 229 228 227 227 228 230 234 237 240 240 238 238 240 239 237 237 239 242 243 244 245 246 248
12 14 15 16 17 19 21 21 23 25 28 33 36 36 37 34 26 25 33 28 23 19 2 358 357 280 241 233 227 225 226 225 225 226 226 226 226 227 228 226 224 221 220 219 217 220 224 225 223 220 218 220 223 227 229 228 227 226 223 223 226 228 229 230 230 232 234 237 239 241 241 240 240 241 243 243 241 240 240 242 244 246 249 250 251
9 13 16 19 19 19 20 21 23 26 29 34 37 38 38 33 24 25 33 33 30 30 28 23 27 23 302 246 223 222 224 226 226 226 227 226 226 226 226 226 226 225 223 221 218 220 224 226 226 222 220 221 223 226 228 227 227 227 226 225 227 228 229 230 233 236 239 241 241 241 242 242 243 245 246 246 245 244 244 244 245 246 247 249 251
8 14 18 20 22 22 21 21 23 26 30 35 39 41 43 37 28 29 35 38 37 33 35 36 36 39 24 358 205 209 214 218 223 226 228 228 228 227 226 227 227 227 226 224 223 223 224 226 228 225 224 224 224 225 227 227 227 228 228 229 231 232 231 232 236 240 242 243 243 241 241 242 245 248 248 247 246 247 246 245 245 245 245 246 249
11 14 16 20 24 25 24 23 23 26 30 36 40 43 47 44 34 34 38 41 44 38 37 39 40 42 36 37 51 43 154 200 212 220 225 226 226 227 228 229 228 227 227 226 225 225 224 226 228 226 226 228 227 227 229 229 229 229 231 232 234 235 235 236 239 241 242 243 243 242 242 243 246 249 249 246 246 246 245 244 242 242 244 247 249
11 12 16 21 26 28 27 26 25 27 30 34 40 44 49 49 39 38 42 43 46 44 39 39 43 45 39 42 54 44 47 118 194 211 222 223 222 223 225 226 225 224 225 226 226 227 228 229 230 229 228 230 230 230 230 232 231 231 231 232 235 236 236 237 239 240 241 242 242 243 244 246 248 249 249 247 246 245 243 241 239 240 243 246 247
12 12 17 22 25 27 28 27 27 28 30 32 38 42 47 51 43 40 45 44 44 43 40 41 43 46 42 41 50 54 49 59 121 187 205 217 221 223 223 223 221 219 220 223 227 230 231 232 233 232 231 231 230 230 231 231 231 230 230 231 233 235 236 237 239 241 242 243 244 246 248 249 250 250 249 247 247 245 242 240 239 240 243 244 244
18 17 20 24 25 28 29 27 28 30 31 31 34 39 44 51 46 42 46 47 45 42 42 44 43 44 43 41 46 55 57 56 68 91 82 78 122 210 215 222 225 220 219 222 226 228 230 233 233 232 232 231 229 228 229 228 228 228 228 230 233 235 238 240 241 242 244 245 247 248 249 250 250 249 249 249 249 247 244 241 239 240 240 240 241
24 24 24 28 29 29 30 29 30 30 32 33 34 37 41 49 48 42 44 47 46 44 44 42 41 42 43 42 44 52 61 60 59 64 67 65 57 56 86 133 183 202 206 211 220 226 231 234 235 235 232 231 231 231 229 227 225 226 228 231 234 236 238 238 239 240 240 241 243 245 246 247 247 247 249 250 251 249 246 243 241 240 238 236 238
27 28 28 30 30 29 29 31 31 30 31 33 33 34 34 39 43 39 37 39 42 44 44 43 40 40 41 42 43 48 60 63 60 63 65 63 56 50 56 67 73 81 101 111 96 83 261 247 240 238 237 236 235 233 231 229 227 228 231 233 236 237 236 235 235 236 237 236 236 240 240 239 239 240 243 246 249 249 246 244 242 239 237 237 239
27 28 28 29 29 29 28 30 31 31 32 31 31 32 28 27 29 29 27 28 35 39 40 42 41 37 38 41 41 42 53 60 59 61 64 62 58 52 50 55 59 60 62 65 62 57 47 34 4 257 248 247 242 237 233 230 228 229 232 235 236 236 235 234 234 234 237 238 235 235 236 235 235 235 239 242 245 246 244 242 239 237 237 239 239
24 25 27 26 27 30 29 29 31 33 34 31 31 32 32 29 23 23 27 27 31 35 34 36 38 37 36 37 38 39 45 52 54 54 57 58 55 50 47 46 47 50 54 56 56 56 52 42 35 25 5 320 264 246 236 227 220 220 224 232 235 235 234 232 232 231 234 239 237 234 235 236 237 238 240 241 241 242 241 239 237 236 238 239 238
24 24 25 26 27 29 29 29 30 33 34 34 34 34 36 40 37 33 36 33 32 34 33 33 35 37 36 34 36 39 43 47 51 52 52 54 54 50 47 44 41 41 42 44 47 50 51 49 42 30 18 13 15 354 280 240 225 220 217 220 226 227 230 227 226 226 227 232 233 231 232 233 235 237 239 240 238 237 237 237 236 237 237 238 237
25 24 25 25 26 27 29 29 30 32 34 36 37 38 42 46 48 46 45 42 35 31 32 34 34 33 34 34 33 37 42 45 48 52 52 52 54 52 48 45 42 39 35 33 37 40 41 44 45 36 21 9 9 12 11 8 346 275 230 224 207 203 228 217 215 222 222 224 227 228 231 232 234 237 238 239 237 236 237 236 236 235 234 235 236
26 25 25 26 26 28 31 31 31 32 33 37 39 41 46 46 45 46 46 42 35 29 25 24 26 27 28 30 31 33 38 43 45 49 53 51 51 51 48 44 42 40 36 28 28 34 33 34 40 36 28 12 356 352 3 15 23 23 21 360 321 238 263 214 199 217 216 217 224 227 232 236 237 239 239 238 235 234 233 231 231 230 231 232 233
26 26 27 29 30 30 34 34 34 34 34 36 39 41 45 45 43 39 36 32 30 27 20 15 18 24 25 28 30 31 35 40 41 44 49 50 48 48 47 44 41 40 37 30 25 31 29 27 33 29 25 17 358 344 348 4 21 27 28 25 19 1 335 287 194 198 205 215 224 227 231 236 237 237 234 232 229 226 225 224 225 226 228 230 232
25 28 29 31 33 33 35 37 36 37 36 36 39 41 42 44 44 41 35 31 26 23 22 22 23 26 29 31 32 32 33 36 38 40 43 45 44 44 44 42 40 38 38 34 27 28 29 27 29 24 19 15 3 342 338 354 8 14 19 18 13 14 9 358 320 307 202 225 231 229 232 233 233 233 228 226 224 222 221 221 223 225 227 230 232
27 29 31 31 33 34 36 38 39 38 38 37 40 42 40 40 41 42 40 35 29 24 26 29 29 29 33 35 34 33 34 35 36 37 39 41 40 39 39 37 36 35 34 35 30 27 29 29 28 23 16 12 5 346 334 352 3 360 3 8 7 11 16 12 5 7 34 280 255 234 238 235 231 230 225 224 223 222 221 221 224 226 228 231 234
30 30 32 32 34 36 37 39 40 38 39 39 40 42 42 40 39 39 38 36 33 32 31 31 30 31 33 35 34 34 34 35 35 35 36 39 38 36 35 34 33 32 31 32 32 30 30 27 23 19 13 9 7 355 344 353 1 357 355 360 4 4 8 12 10 14 28 7 356 280 257 246 238 235 229 227 227 226 225 224 227 229 229 232 235
31 33 34 35 36 37 39 40 39 37 38 39 39 40 41 41 39 36 35 33 32 33 32 31 30 30 30 31 31 31 32 33 33 33 34 36 37 35 33 31 29 30 30 29 29 29 30 26 19 14 9 7 9 9 4 359 357 354 350 353 2 4 3 4 3 6 18 20 340 300 281 255 247 246 237 233 233 232 232 229 229 231 232 234 235
33 35 36 36 36 37 39 41 40 37 38 39 39 39 39 39 38 36 34 31 30 31 31 29 28 28 26 25 27 28 29 30 30 31 33 34 35 34 32 30 27 27 28 28 28 27 27 23 17 14 9 6 7 10 11 7 359 353 350 349 356 5 4 354 351 353 356 351 325 306 311 292 273 279 258 247 243 240 240 237 233 232 233 234 236